K2NV Weather Reports


time (UTC)temp
F
wind
direction
speed
knots
gust
knots
rain 1hr
in
rain 24hr
in
rain mn
in
humidity
%
barometer
mb
20260505041417 62 232 10.4 14.8 0.00 0.00 0.00 71 1000.9
20260505040917 63 242 10.4 15.6 0.00 0.00 0.00 71 1000.9
20260505040418 63 231 12.2 20.0 0.00 0.00 0.00 71 1000.8
20260505035917 62 232 11.3 18.2 0.00 0.00 0.00 72 1000.7
20260505035417 61 232 7.8 17.4 0.00 0.00 0.00 73 1000.8
20260505034917 60 198 10.4 13.0 0.00 0.00 0.00 74 1000.6
20260505034416 59 200 12.2 17.4 0.00 0.00 0.00 76 1000.6
20260505033917 58 183 4.3 7.0 0.00 0.00 0.00 76 1000.5
20260505033418 58 184 4.3 7.0 0.00 0.00 0.00 76 1000.4
20260505032917 58 187 4.3 6.1 0.00 0.00 0.00 75 1000.5
20260505032418 58 180 5.2 7.8 0.00 0.00 0.00 75 1000.5
20260505031916 58 183 6.1 7.8 0.00 0.00 0.00 74 1000.6
20260505031418 58 179 5.2 6.1 0.00 0.00 0.00 74 1000.6
20260505030917 58 190 4.3 6.1 0.00 0.00 0.00 74 1000.7
20260505030417 58 194 6.1 7.8 0.00 0.00 0.00 73 1000.7
20260505025916 59 186 5.2 8.7 0.00 0.00 0.00 73 1000.7
20260505025417 59 189 6.1 8.7 0.00 0.00 0.00 72 1000.9
20260505024919 59 210 6.1 11.3 0.00 0.00 0.00 72 1000.9
20260505024418 59 204 7.0 7.8 0.00 0.00 0.00 72 1001.0
20260505023917 59 211 7.0 11.3 0.00 0.00 0.00 73 1001.0
20260505023418 59 208 7.8 10.4 0.00 0.00 0.00 73 1001.0
20260505022917 59 197 7.0 8.7 0.00 0.00 0.00 74 1001.1
20260505022416 58 204 6.1 7.8 0.00 0.00 0.00 74 1001.2
20260505021917 58 221 5.2 6.1 0.00 0.00 0.00 73 1001.2
20260505021418 58 209 4.3 10.4 0.00 0.00 0.00 71 1001.1
20260505020917 59 207 6.1 7.8 0.00 0.00 0.00 70 1001.2
20260505020417 59 185 7.0 8.7 0.00 0.00 0.00 68 1001.1
20260505015917 59 184 7.0 12.2 0.00 0.00 0.00 64 1001.1
20260505015416 60 193 7.0 8.7 0.00 0.00 0.00 62 1001.5
20260505014918 60 216 6.1 10.4 0.00 0.00 0.00 60 1001.3
20260505014417 61 185 6.1 10.4 0.00 0.00 0.00 59 1001.0
20260505013916 61 179 5.2 7.0 0.00 0.00 0.00 58 1000.8
20260505013417 62 178 5.2 7.0 0.00 0.00 0.00 57 1000.9
20260505012917 62 190 5.2 7.0 0.00 0.00 0.00 56 1000.8
20260505012418 63 196 4.3 8.7 0.00 0.00 0.00 56 1000.8
20260505011919 63 170 4.3 5.2 0.00 0.00 0.00 55 1000.9
20260505011417 63 186 2.6 6.1 0.00 0.00 0.00 54 1000.9
20260505010918 63 171 4.3 6.1 0.00 0.00 0.00 54 1000.9
20260505010417 64 193 4.3 6.1 0.00 0.00 0.00 53 1000.9
20260505005916 64 192 4.3 6.1 0.00 0.00 0.00 53 1000.9
20260505005418 64 185 1.7 2.6 0.00 0.00 0.00 52 1000.8
20260505004916 64 191 2.6 4.3 0.00 0.00 0.00 53 1000.7
20260505003917 64 226 5.2 6.1 0.00 0.00 0.00 51 1000.7
20260505003416 65 212 2.6 5.2 0.00 0.00 0.00 51 1000.7
20260505002417 65 223 4.3 5.2 0.00 0.00 0.00 49 1000.9
20260505001916 66 231 5.2 7.0 0.00 0.00 0.00 49 1000.9
20260505000917 67 232 5.2 5.2 0.00 0.00 0.00 47 1000.9
20260505000416 67 234 5.2 8.7 0.00 0.00 0.00 47 1000.9
20260504235417 68 242 5.2 7.8 0.00 0.00 0.00 45 1001.0
20260504234918 68 226 6.1 12.2 0.00 0.00 0.00 45 1000.9
20260504234421 68 248 7.8 13.0 0.00 0.00 0.00 44 1001.0
20260504233916 69 237 7.8 10.4 0.00 0.00 0.00 44 1001.0
20260504233418 69 246 8.7 12.2 0.00 0.00 0.00 44 1001.1
20260504232417 69 239 7.8 12.2 0.00 0.00 0.00 44 1001.1
20260504231918 69 263 7.0 10.4 0.00 0.00 0.00 44 1001.1
20260504231417 69 240 7.0 13.0 0.00 0.00 0.00 44 1001.1
20260504230416 70 255 10.4 13.9 0.00 0.00 0.00 42 1001.2
20260504225417 70 257 8.7 12.2 0.00 0.00 0.00 43 1001.3
20260504224918 70 251 7.8 11.3 0.00 0.00 0.00 45 1001.3
20260504223916 69 245 10.4 13.9 0.00 0.00 0.00 46 1001.4
20260504222918 69 251 7.8 13.0 0.00 0.00 0.00 50 1001.4
20260504222417 69 249 6.1 13.9 0.00 0.00 0.00 49 1001.3
20260504221918 69 248 10.4 13.0 0.00 0.00 0.00 49 1001.4
20260504221418 69 242 10.4 17.4 0.00 0.00 0.00 48 1001.3
20260504220917 69 247 8.7 17.4 0.00 0.00 0.00 49 1001.3
20260504220416 69 253 11.3 17.4 0.00 0.00 0.00 49 1001.3
20260504215919 69 244 8.7 13.0 0.00 0.00 0.00 49 1001.3
20260504215416 69 237 11.3 14.8 0.00 0.00 0.00 48 1001.4
20260504214919 70 236 12.2 18.2 0.00 0.00 0.00 47 1001.3
20260504214418 70 254 12.2 17.4 0.00 0.00 0.00 46 1001.4
20260504213918 70 251 13.0 20.0 0.00 0.00 0.00 43 1001.3
20260504213417 70 261 7.8 15.6 0.00 0.00 0.00 44 1001.3
20260504212919 70 242 13.0 20.0 0.00 0.00 0.00 46 1001.3
20260504212417 70 242 7.0 10.4 0.00 0.00 0.00 47 1001.3
20260504211918 70 242 10.4 15.6 0.00 0.00 0.00 47 1001.2
20260504211418 70 250 7.8 13.9 0.00 0.00 0.00 46 1001.2
20260504210918 70 239 12.2 17.4 0.00 0.00 0.00 46 1001.3
20260504210417 70 238 11.3 15.6 0.00 0.00 0.00 46 1001.3
20260504205916 70 250 12.2 18.2 0.00 0.00 0.00 46 1001.4
20260504205417 71 236 12.2 20.0 0.00 0.00 0.00 46 1001.3
20260504204917 70 231 8.7 13.9 0.00 0.00 0.00 47 1001.4
20260504204418 70 242 11.3 20.0 0.00 0.00 0.00 47 1001.4
20260504203921 71 227 11.3 17.4 0.00 0.00 0.00 48 1001.6
20260504203416 70 249 12.2 17.4 0.00 0.00 0.00 47 1001.6
20260504202918 71 237 8.7 15.6 0.00 0.00 0.00 47 1001.7
20260504202418 71 241 10.4 21.7 0.00 0.00 0.00 48 1001.8
20260504201917 71 240 12.2 17.4 0.00 0.00 0.00 48 1001.9
20260504201420 70 226 7.8 13.9 0.00 0.00 0.00 50 1001.9
20260504200917 70 220 10.4 13.9 0.00 0.00 0.00 49 1001.8
20260504200417 71 206 8.7 15.6 0.00 0.00 0.00 51 1001.9
20260504195917 70 215 7.8 11.3 0.00 0.00 0.00 52 1001.9
20260504195418 69 213 7.0 10.4 0.00 0.00 0.00 51 1002.0
20260504194917 69 222 8.7 13.0 0.00 0.00 0.00 50 1002.1
20260504194418 69 232 10.4 13.9 0.00 0.00 0.00 51 1002.2
20260504193917 69 241 8.7 15.6 0.00 0.00 0.00 52 1002.3
20260504193417 69 227 11.3 13.0 0.00 0.00 0.00 51 1002.4
20260504192918 69 242 8.7 17.4 0.00 0.00 0.00 52 1002.6
20260504192417 70 228 7.8 11.3 0.00 0.00 0.00 52 1002.6
20260504191916 69 222 7.0 8.7 0.00 0.00 0.00 52 1002.6
20260504191417 69 231 11.3 13.0 0.00 0.00 0.00 53 1002.8
20260504190917 69 220 7.8 11.3 0.00 0.00 0.00 52 1002.8
20260504190418 69 216 8.7 13.0 0.00 0.00 0.00 53 1002.9
20260504185918 69 208 8.7 13.0 0.00 0.00 0.00 53 1003.0
20260504185417 69 212 11.3 14.8 0.00 0.00 0.00 54 1003.0
20260504184917 69 238 12.2 18.2 0.00 0.00 0.00 52 1003.1
20260504184418 68 226 10.4 20.0 0.00 0.00 0.00 54 1003.2
20260504183917 69 226 12.2 13.9 0.00 0.00 0.00 53 1003.1
20260504183416 68 205 11.3 15.6 0.00 0.00 0.00 55 1003.2
20260504182917 68 226 7.8 13.0 0.00 0.00 0.00 56 1003.3
20260504182417 68 237 7.8 11.3 0.00 0.00 0.00 56 1003.4
20260504181918 67 228 11.3 13.0 0.00 0.00 0.00 55 1003.5
20260504181417 67 233 12.2 18.2 0.00 0.00 0.00 55 1003.6
20260504180916 67 217 10.4 15.6 0.00 0.00 0.00 57 1003.6
20260504180418 66 228 7.0 8.7 0.00 0.00 0.00 58 1003.7
20260504175917 66 229 10.4 12.2 0.00 0.00 0.00 58 1003.7
20260504175418 65 228 11.3 14.8 0.00 0.00 0.00 59 1003.9
20260504174917 65 245 13.9 19.1 0.00 0.00 0.00 58 1004.0
20260504174417 65 246 11.3 19.1 0.00 0.00 0.00 58 1004.2
20260504173918 65 247 14.8 25.2 0.00 0.00 0.00 57 1004.2
20260504173417 65 252 11.3 17.4 0.00 0.00 0.00 58 1004.3
20260504172916 64 231 10.4 14.8 0.00 0.00 0.00 59 1004.3
20260504172418 64 240 12.2 20.9 0.00 0.00 0.00 60 1004.4
20260504171921 64 252 14.8 20.0 0.00 0.00 0.00 58 1004.4
20260504171417 64 252 12.2 18.2 0.00 0.00 0.00 59 1004.5
20260504170918 63 231 10.4 19.1 0.00 0.00 0.00 59 1004.6
20260504170418 63 233 12.2 20.9 0.00 0.00 0.00 59 1004.6
20260504160418 62 230 14.8 21.7 0.00 0.00 0.00 59 1005.0
20260504150917 61 239 13.0 20.9 0.00 0.00 0.00 61 1005.1
20260504150416 61 250 15.6 24.3 0.00 0.00 0.00 59 1005.1
20260504140917 58 230 13.9 20.0 0.00 0.00 0.00 62 1005.1
20260504140417 58 249 11.3 13.9 0.00 0.00 0.00 61 1005.0
20260504130416 56 235 11.3 21.7 0.00 0.00 0.00 64 1005.3
20260504110416 51 221 6.1 11.3 0.00 0.00 0.00 70 1005.9
20260504100415 51 241 6.1 10.4 0.00 0.00 0.00 68 1005.5
20260504081917 49 218 7.0 8.7 0.00 0.00 0.00 71 1006.3
20260504081416 49 229 6.1 7.8 0.00 0.00 0.00 71 1006.4
20260504080916 49 218 5.2 10.4 0.00 0.00 0.00 71 1006.5
20260504080418 49 231 7.0 8.7 0.00 0.00 0.00 71 1006.6
20260504050416 50 247 8.7 15.6 0.00 0.00 0.00 73 1007.9
20260504045916 50 250 8.7 13.9 0.00 0.00 0.00 72 1007.8
20260504045418 51 241 8.7 14.8 0.00 0.00 0.00 71 1008.0
20260504044918 51 247 12.2 18.2 0.00 0.00 0.00 71 1008.0
20260504044416 51 251 10.4 14.8 0.00 0.00 0.00 70 1008.1
20260504043916 51 247 10.4 14.8 0.00 0.00 0.00 70 1008.1
20260504043417 51 256 10.4 13.0 0.00 0.00 0.00 69 1008.1
20260504042917 52 242 8.7 13.0 0.00 0.00 0.00 68 1008.1
20260504042416 52 242 7.8 17.4 0.00 0.00 0.00 67 1008.1
20260504041917 52 244 10.4 11.3 0.00 0.00 0.00 66 1008.0